{"data":{"norad_id":29522,"epoch":"2026-05-25T02:49:35.065344Z","epoch_age_seconds":61491,"freshness":"FRESH","line1":"1 29522U 06050A   26145.11776696  .00000041  00000+0  43343-4 0  9997","line2":"2 29522  98.7381 152.1601 0011145 118.5017 241.7280 14.14988562  9167","mean_motion":14.14988562,"eccentricity":0.0011145,"inclination_deg":98.7381,"raan_deg":152.1601,"arg_perigee_deg":118.5017,"mean_anomaly_deg":241.728,"bstar":4.3343e-5,"rev_number":916,"period_min":101.76760707978,"perigee_km":834.30384229949,"apogee_km":850.39831022147,"semimajor_km":7220.4880762605,"source":"CELESTRAK","updated_at":"2026-05-25T13:38:11.910665Z"}}